This is the latest recevied weather packets stored in our database for station/object AB1AU. If no packets are shown the sender has not sent any weather packets the latest 10 day(s).
| Time | Temp. | Humidity | Pressure | Rain* | Wind** | Luminosity | Snow |
|---|---|---|---|---|---|---|---|
| 1787866446 | 25° C | 69% | 1017 hPa | 0 mm | - | 17 W/m² | - |
| 1787866150 | 25.56° C | 68% | 1017 hPa | 0 mm | - | 20 W/m² | - |
| 1787865840 | 25.56° C | 67% | 1016.9 hPa | 0 mm | - | 32 W/m² | - |
| 1787865536 | 26.11° C | 65% | 1016.8 hPa | 0 mm | - | 30 W/m² | - |
| 1787865231 | 26.11° C | 64% | 1016.9 hPa | 0 mm | - | 33 W/m² | - |
| 1787864927 | 26.67° C | 62% | 1016.6 hPa | 0 mm | - | 57 W/m² | - |
| 1787864623 | 26.11° C | 61% | 1016.7 hPa | 0 mm | - | 46 W/m² | - |
| 1787864322 | 26.11° C | 61% | 1016.7 hPa | 0 mm | - | 40 W/m² | - |
| 1787864016 | 26.11° C | 61% | 1016.8 hPa | 0 mm | - | 32 W/m² | - |
| 1787863715 | 26.11° C | 60% | 1016.6 hPa | 0 mm | - | 26 W/m² | - |
| 1787863415 | 26.11° C | 59% | 1016.6 hPa | 0 mm | - | 34 W/m² | - |
| 1787863111 | 26.67° C | 57% | 1016.8 hPa | 0 mm | - | 39 W/m² | - |
| 1787862806 | 27.22° C | 57% | 1016.8 hPa | 0 mm | - | 58 W/m² | - |
| 1787862505 | 27.22° C | 57% | 1016.8 hPa | 0 mm | - | 65 W/m² | - |
| 1787862200 | 26.67° C | 56% | 1016.8 hPa | 0 mm | - | 101 W/m² | - |
| 1787861896 | 26.67° C | 58% | 1016.8 hPa | 0 mm | - | 78 W/m² | - |
| 1787861595 | 26.67° C | 57% | 1016.8 hPa | 0 mm | - | 45 W/m² | - |
| 1787861294 | 27.22° C | 56% | 1016.9 hPa | 0 mm | - | 43 W/m² | - |
| 1787860994 | 27.78° C | 55% | 1016.8 hPa | 0 mm | - | 50 W/m² | - |
| 1787860693 | 27.78° C | 54% | 1016.8 hPa | 0 mm | - | 56 W/m² | - |
| 1787860389 | 27.78° C | 54% | 1016.8 hPa | 0 mm | - | 72 W/m² | - |
| 1787860083 | 27.78° C | 53% | 1016.5 hPa | 0 mm | - | 114 W/m² | - |
| 1787859779 | 27.22° C | 54% | 1016.6 hPa | 0 mm | - | 134 W/m² | - |
| 1787859473 | 26.67° C | 56% | 1016.6 hPa | 0 mm | - | 99 W/m² | - |
| 1787859172 | 26.67° C | 55% | 1016.6 hPa | 0 mm | - | 84 W/m² | - |
* Rain latest hour (hover to see other rain measurements)
** Current wind speed in m/s (hover to see current wind gust speed)